NOAA 16 DEB, 41374

Orbit data source: Space-Track

NOAA 16 DEB, 41374 is space debris in SSO originally from a launch on Thu, 21 Sep 2000 UTC launched from the Air Force Western Test Range (AFWTR). Debris objects in space refer to the collection of defunct objects orbiting the Earth. Examples of debris include non-operational satellites, rocket bodies, and fragments generated from explosions, collisions, or faulty payload assembly.

Loading next visibility...
NOAA 16 DEB details
Identifier
41374, 2000-055JT
Orbit
SSO
Last TLE update22 hours ago
Origin
Flag of USNOAA (US)
ManufacturerUnknown
MissionSpacecraft
Bus & MotorUnknown
MassUnknown
Launch date (UTC)
2000-09-21 (24 years ago)
Launch vehicleUnknown
Launch site
Air Force Western Test Range (AFWTR)
Object type
Payload
Rocket body
Debris
Shape & HBRUnknown
Radar Cross SectionSmall (<0.1 m²)

Expand to show TLE details & history

TLE from 22 hours ago
0 NOAA 16 DEB
1 41374U 00055JT  24360.57375767  .00007766  00000-0  39476-2 0  9998
2 41374  98.7458  47.7863 0034426 270.3233  89.3996 14.15812708459128
Epoch: 2024-12-25T13:46Z
Definitive object data (Epoch: 2024-12-25T13:46:12.662Z)
Latitude-0.00006°
Longitude106.66799°
Altitude842.281 km
Speed7.432 km/s
True Right ascension03h 11m 08s
True Declination0° 00' 00"
Sunlit
Object was in full shadow at TLE epoch
Visualization TLE readout
Latitude9.27038°
Longitude106.14006°
Altitude846.659 km
Speed7.428 km/s
Apparent Right ascension01h 35m 04s
Apparent Declination-15° 28' 03"
Sunlit
Object is in full shadow
Visualization observer readout
Local Sidereal Time11:13:12
Azimuth298.144° NW
Elevation-50.641°
Doppler factor1
Orbital elements
Apogee altitude861.552 km
Perigee altitude811.877 km
Semi-major axis7,214.852 km
Eccentricity0.0034426
Inclination98.7458°
RAAN47.7863°
Arg. of periapsis270.3233°
True anomaly89.79409°
Mean anomaly89.3996°
Eccentric anomaly89.59684°
Mean motion3.54162 °/min
BSTAR0.0039476
Orbital period101.65 mins
Loading maneuver chart data...
Loading historical data...
Loading historical data...
Loading historical data...
Loading historical data...
Loading historical data...
Loading historical data...
Loading historical data...

NOAA 16 DEB Visibility forecast

Observer location: undefined°, undefined

Span
Click to sort rows by Start time (UTC) header in descending order
Start Az.
Max El. time (UTC)
Max El. Az.
Max El.
End time (UTC)
End Az.
10 mins2024-12-26 15:47:47.547Z26.768° NE2024-12-26 15:52:47.547Z105.335° ESE36.808°2024-12-26 15:57:47.547Z173.668° S
7 mins2024-12-26 17:29:47.547Z335.705° NNW2024-12-26 17:32:47.547Z295.163° NW21.264°2024-12-26 17:36:47.547Z247.039° WSW
9 mins2024-12-27 03:12:47.547Z158.203° S2024-12-27 03:16:47.547Z44.797° NE44.255°2024-12-27 03:21:47.547Z349.378° N
|